Content
SEND FEEDBACK

Daily
Averages
Monthly
Summary
United States of America

GARDENDALE, TEXAS


Home > North America > United States > Texas
Elevation: 3171 feet     Latitude: 32 19N     Longitude: 102 32W

WEATHER
 
SELECT A DAY
Number of Records: 58,187;   Date Range: 4/17/12 - 11/26/14
 
SHARE

PRINT THIS DATA

[ ← Previous Day ]
WEATHER ALMANAC - JULY 13, 2014
[ Next Day → ]
[ °C ]   °F
Weather ElementAverageHighLow
Temperature81.4 °F93.4 °F (12:55 pm)66.6 °F (12:55 am)
Dewpoint57.4 °F61.7 °F (12:55 am)53.6 °F (5:35 am)
Humidity47 %77 % (11:55 pm)27 % (12:15 pm)
Barometer30.15 in30.21 in (6:15 am)30.07 in (3:55 am)
Wind Speed7.9 mph15 mph (9:15 am)
Wind Gust27.6 mph (8:15 pm)
Weather ElementAverage
Visibility10 mi
Wind DirectionSSE (155 °)

Weather ElementTotal
Precipitation---
Cooling Degree Days15 (Base 65)
Growing Degree Days30 (Base 50)
Averaged from 72 records on July 13, 2014
WEATHER CONDITIONS BREAKOUT
WIND DIRECTION BREAKOUT
WEATHER BY HOUR - JULY 13, 2014
[ °C ]   °F
Local TimeTemperatureDewpointHumidityBarometerVisibilityWind DirectionWind SpeedGust SpeedPrecipitationEventsConditions
12:15 AM77.5 °F57.4 °F50 %30.16 in10.0 miSouth (170°)10.4 mph17.3 mphClear
12:35 AM77.0 °F57.6 °F51 %30.17 in10.0 miSouth (180°)10.4 mphClear
12:55 AM76.1 °F57.7 °F53 %30.17 in10.0 miSouth (170°)8.1 mphClear
1:15 AM75.2 °F57.7 °F54 %30.17 in10.0 miSouth (170°)6.9 mphClear
1:35 AM74.3 °F57.6 °F56 %30.17 in10.0 miSSE (160°)5.8 mphClear
1:55 AM73.4 °F57.6 °F58 %30.18 in10.0 miSSE (160°)4.6 mphClear
2:15 AM72.7 °F57.7 °F59 %30.18 in10.0 miSSE (160°)5.8 mphClear
2:35 AM72.7 °F59.0 °F62 %30.18 in10.0 miSouth (180°)5.8 mphClear
2:55 AM72.3 °F59.9 °F65 %30.18 in10.0 miSouth (180°)4.6 mphClear
3:15 AM71.4 °F59.5 °F66 %30.18 in10.0 miSE (140°)4.6 mphClear
3:35 AM70.7 °F59.5 °F68 %30.18 in10.0 miSSE (150°)3.5 mphClear
3:55 AM70.0 °F59.4 °F69 %30.18 in10.0 miESE (120°)3.5 mphClear
4:15 AM67.8 °F58.1 °F71 %30.18 in10.0 miNNE (20°)4.6 mphClear
4:35 AM67.3 °F58.1 °F72 %30.18 in10.0 miCalmClear
4:55 AM67.3 °F58.1 °F72 %30.18 in10.0 miEast (80°)3.5 mphClear
5:15 AM66.7 °F57.7 °F73 %30.18 in10.0 miEast (90°)3.5 mphClear
5:35 AM66.7 °F58.1 °F74 %30.17 in10.0 miSE (130°)4.6 mphClear
5:55 AM67.1 °F58.6 °F74 %30.17 in10.0 miSE (130°)6.9 mphClear
6:15 AM68.0 °F59.4 °F74 %30.17 in10.0 miSE (130°)6.9 mphClear
6:35 AM67.3 °F59.2 °F75 %30.18 in10.0 miESE (120°)5.8 mphClear
6:55 AM66.6 °F59.0 °F77 %30.18 in10.0 miESE (120°)5.8 mphClear
7:15 AM67.6 °F59.2 °F74 %30.18 in10.0 miESE (120°)5.8 mphClear
7:35 AM69.1 °F59.5 °F72 %30.19 in10.0 miESE (120°)6.9 mphClear
7:55 AM70.7 °F59.9 °F69 %30.19 in10.0 miSE (140°)8.1 mphClear
8:15 AM71.8 °F60.1 °F67 %30.19 in10.0 miSSE (160°)10.4 mphClear
8:35 AM73.6 °F60.8 °F64 %30.20 in10.0 miSSE (160°)11.5 mphClear
8:55 AM75.2 °F61.3 °F62 %30.20 in10.0 miSouth (180°)8.1 mph17.3 mphClear
9:15 AM76.8 °F61.7 °F59 %30.21 in10.0 miSouth (180°)8.1 mphClear
9:35 AM77.7 °F61.5 °F57 %30.21 in10.0 miSouth (190°)10.4 mphClear
9:55 AM78.8 °F61.5 °F55 %30.21 in10.0 miSSE (160°)11.5 mphClear
10:15 AM80.8 °F61.3 °F51 %30.21 in10.0 miSouth (170°)12.7 mphClear
10:35 AM81.5 °F61.0 °F50 %30.20 in10.0 miSouth (170°)12.7 mph17.3 mphClear
10:55 AM81.9 °F60.4 °F48 %30.20 in10.0 miSouth (190°)10.4 mph18.4 mphClear
11:15 AM83.8 °F59.7 °F44 %30.20 in10.0 miSouth (190°)8.1 mph17.3 mphClear
11:35 AM84.4 °F59.4 °F43 %30.20 in10.0 miSSE (160°)5.8 mphClear
11:55 AM86.2 °F58.3 °F39 %30.20 in10.0 miSSE (150°)8.1 mph16.1 mphClear
12:15 PM86.0 °F59.0 °F40 %30.20 in10.0 miSSE (160°)4.6 mph18.4 mphClear
12:35 PM87.1 °F56.8 °F36 %30.19 in10.0 miSSW (210°)5.8 mph16.1 mphClear
12:55 PM88.0 °F57.0 °F35 %30.19 in10.0 miESE (120°)5.8 mphClear
1:15 PM89.1 °F57.0 °F34 %30.18 in10.0 miSouth (190°)8.1 mph18.4 mphClear
1:35 PM88.5 °F56.1 °F33 %30.18 in10.0 miSSE (150°)12.7 mph19.6 mphClear
1:55 PM90.3 °F56.3 °F32 %30.17 in10.0 miSSE (150°)15.0 mph27.6 mphClear
2:15 PM91.0 °F55.9 °F30 %30.16 in10.0 miSouth (170°)11.5 mph21.9 mphClear
2:35 PM91.4 °F56.5 °F31 %30.16 in10.0 miSouth (180°)6.9 mph20.7 mphClear
2:55 PM92.7 °F55.2 °F28 %30.14 in10.0 miSSW (200°)9.2 mph17.3 mphScattered Clouds
3:15 PM93.0 °F55.0 °F28 %30.14 in10.0 miSSE (160°)10.4 mph25.3 mphScattered Clouds
3:35 PM93.4 °F54.9 °F27 %30.14 in10.0 miSouth (170°)12.7 mph19.6 mphScattered Clouds
3:55 PM92.5 °F55.2 °F28 %30.13 in10.0 miSSE (160°)8.1 mph19.6 mphScattered Clouds
4:15 PM92.5 °F53.6 °F27 %30.12 in10.0 miSSE (160°)8.1 mph23.0 mphScattered Clouds
4:35 PM92.3 °F53.6 °F27 %30.12 in10.0 miSSE (160°)9.2 mph18.4 mphScattered Clouds
4:55 PM91.8 °F53.8 °F27 %30.11 in10.0 miSouth (170°)4.6 mph19.6 mphScattered Clouds
5:15 PM92.5 °F54.7 °F28 %30.10 in10.0 miSE (130°)9.2 mph19.6 mphScattered Clouds
5:35 PM93.0 °F55.0 °F28 %30.09 in10.0 miSSE (150°)10.4 mph19.6 mphScattered Clouds
5:55 PM91.8 °F55.4 °F29 %30.08 in10.0 miSouth (190°)6.9 mph16.1 mphScattered Clouds
6:15 PM91.0 °F54.9 °F29 %30.08 in10.0 miSouth (190°)11.5 mph17.3 mphScattered Clouds
6:35 PM93.4 °F55.2 °F28 %30.08 in10.0 miSSE (160°)12.7 mph19.6 mphScattered Clouds
6:55 PM92.8 °F55.4 °F28 %30.07 in10.0 miSSE (160°)15.0 mph18.4 mphScattered Clouds
7:15 PM92.8 °F54.9 °F28 %30.08 in10.0 miSouth (170°)8.1 mph19.6 mphScattered Clouds
7:35 PM91.8 °F54.7 °F28 %30.08 in10.0 miSouth (170°)9.2 mph18.4 mphScattered Clouds
7:55 PM90.5 °F55.4 °F30 %30.08 in10.0 miSSE (150°)6.9 mph16.1 mphMostly Cloudy
8:15 PM90.1 °F55.0 °F30 %30.08 in10.0 miSSE (160°)10.4 mphScattered Clouds
8:35 PM89.1 °F54.5 °F31 %30.08 in10.0 miSSE (160°)8.1 mph16.1 mphClear
8:55 PM88.0 °F54.9 °F32 %30.09 in10.0 miSouth (170°)9.2 mphClear
9:15 PM86.9 °F54.9 °F33 %30.09 in10.0 miSSE (160°)6.9 mphClear
9:35 PM85.8 °F55.0 °F35 %30.09 in10.0 miSSE (160°)8.1 mphClear
9:55 PM85.1 °F55.4 °F36 %30.09 in10.0 miSouth (170°)8.1 mphClear
10:15 PM84.4 °F55.6 °F37 %30.10 in10.0 miSSE (160°)9.2 mphClear
10:35 PM83.7 °F55.8 °F38 %30.11 in10.0 miSouth (170°)8.1 mphClear
10:55 PM82.9 °F55.9 °F39 %30.12 in10.0 miSouth (170°)5.8 mphClear
11:15 PM82.2 °F55.9 °F40 %30.12 in10.0 miSouth (170°)5.8 mphClear
11:35 PM81.5 °F56.3 °F42 %30.12 in10.0 miSouth (170°)5.8 mphClear
11:55 PM81.1 °F56.3 °F42 %30.13 in10.0 miSSE (160°)6.9 mphClear
Hourly data recorded from KE11, located miles away from Gardendale, Texas







STORIES FROM OUR PARTNERS